CW1792 Weather Reports


Display with metric or nautical units.
time (UTC)temp
F
wind
direction
speed
MPH
gust
MPH
rain 1hr
in
rain 24hr
in
rain mn
in
humidity
%
barometer
mb
20180120111707 39 235 0.0 0.0 0.00 0.01 0.00 92 1020.1
20180120111206 39 235 0.0 0.0 0.00 0.01 0.00 92 1020.2
20180120110706 39 235 0.0 0.0 0.00 0.01 0.00 92 1020.2
20180120110206 39 235 0.0 0.0 0.00 0.01 0.00 92 1020.2
20180120105706 39 235 0.0 0.0 0.00 0.01 0.00 92 1020.2
20180120105206 39 235 0.0 0.0 0.00 0.01 0.00 92 1020.2
20180120104706 39 235 1.0 2.0 0.00 0.01 0.00 92 1020.2
20180120104206 39 235 1.0 2.0 0.00 0.01 0.00 91 1020.2
20180120102707 39 235 0.0 0.0 0.00 0.01 0.00 91 1020.2
20180120102207 39 235 0.0 0.0 0.00 0.01 0.00 91 1020.2
20180120101706 39 235 0.0 0.0 0.00 0.01 0.00 91 1020.2
20180120101207 39 236 0.0 0.0 0.00 0.01 0.00 91 1020.1
20180120100706 39 235 0.0 0.0 0.00 0.01 0.00 91 1020.0
20180120100207 39 235 0.0 0.0 0.00 0.01 0.00 91 1019.9
20180120095706 40 235 0.0 0.0 0.00 0.01 0.00 91 1019.9
20180120095206 40 235 0.0 0.0 0.00 0.01 0.00 91 1019.8
20180120094206 40 235 0.0 0.0 0.00 0.02 0.00 91 1019.7
20180120093706 40 235 0.0 0.0 0.00 0.02 0.00 91 1019.7
20180120093207 40 235 0.0 0.0 0.00 0.02 0.00 91 1019.7
20180120092706 40 235 0.0 0.0 0.00 0.02 0.00 91 1019.6
20180120092206 40 235 0.0 0.0 0.00 0.02 0.00 91 1019.6
20180120091706 40 235 0.0 0.0 0.00 0.02 0.00 91 1019.5
20180120091206 40 236 0.0 0.0 0.00 0.02 0.00 90 1019.5
20180120090706 40 235 0.0 0.0 0.00 0.02 0.00 90 1019.6
20180120090207 40 235 0.0 0.0 0.00 0.02 0.00 90 1019.6
20180120085706 40 235 0.0 0.0 0.00 0.02 0.00 90 1019.5
20180120085206 40 235 0.0 0.0 0.00 0.02 0.00 90 1019.6
20180120084707 40 235 0.0 0.0 0.00 0.02 0.00 90 1019.6
20180120084207 41 235 0.0 0.0 0.00 0.02 0.00 90 1019.7
20180120083706 41 235 0.0 0.0 0.00 0.02 0.00 90 1019.7
20180120083207 41 235 0.0 0.0 0.00 0.02 0.00 90 1019.6
20180120082706 41 236 1.0 2.0 0.00 0.02 0.00 90 1019.6
20180120082206 41 235 1.0 2.0 0.00 0.02 0.00 90 1019.6
20180120081707 41 235 1.0 2.0 0.00 0.02 0.00 90 1019.6
20180120081206 41 235 0.0 0.0 0.00 0.02 0.00 90 1019.6
20180120080706 41 235 0.0 0.0 0.00 0.02 0.00 89 1019.6
20180120080206 41 235 0.0 2.0 0.00 0.02 0.00 89 1019.7
20180120075706 41 236 1.0 2.0 0.00 0.02 0.02 89 1019.7
20180120075206 41 235 0.0 1.0 0.00 0.02 0.02 89 1019.7
20180120074206 41 235 1.0 2.0 0.00 0.02 0.02 89 1019.7
20180120073706 41 236 0.0 0.0 0.00 0.02 0.02 89 1019.7
20180120073206 42 235 0.0 0.0 0.00 0.02 0.02 89 1019.7
20180120072706 42 236 0.0 0.0 0.00 0.02 0.02 88 1019.7
20180120072206 42 235 0.0 0.0 0.00 0.02 0.02 88 1019.7
20180120071706 42 236 0.0 1.0 0.00 0.02 0.02 88 1019.7
20180120071206 42 236 0.0 0.0 0.00 0.02 0.02 88 1019.6
20180120070707 42 235 0.0 1.0 0.00 0.02 0.02 88 1019.6
20180120070207 42 235 1.0 2.0 0.00 0.02 0.02 88 1019.6
20180120065707 42 235 0.0 1.0 0.00 0.02 0.02 87 1019.7
20180120065207 42 235 0.0 0.0 0.00 0.02 0.02 87 1019.7
20180120064707 42 235 0.0 0.0 0.00 0.02 0.02 87 1019.7
20180120063706 42 235 0.0 0.0 0.00 0.02 0.02 87 1019.6
20180120062706 43 235 0.0 2.0 0.00 0.02 0.02 86 1019.5
20180120062207 43 235 1.0 2.0 0.00 0.02 0.02 86 1019.4
20180120061706 43 234 0.0 2.0 0.00 0.02 0.02 86 1019.5
20180120061207 43 241 1.0 2.0 0.00 0.03 0.02 86 1019.4
20180120060706 43 241 0.0 0.0 0.00 0.03 0.02 86 1019.4
20180120060207 43 241 0.0 2.0 0.00 0.03 0.02 86 1019.4
20180120055706 43 256 0.0 1.0 0.00 0.03 0.02 86 1019.5
20180120055206 43 256 0.0 1.0 0.00 0.03 0.02 85 1019.5
20180120054707 43 256 0.0 0.0 0.00 0.03 0.02 85 1019.4
20180120053706 44 256 0.0 1.0 0.00 0.03 0.02 85 1019.4
20180120053206 44 256 0.0 1.0 0.00 0.03 0.02 85 1019.4
20180120052706 44 256 0.0 3.0 0.00 0.03 0.02 85 1019.3
20180120052206 44 226 0.0 2.0 0.00 0.04 0.02 85 1019.3
20180120051706 44 226 0.0 0.0 0.00 0.04 0.02 85 1019.4
20180120051207 44 226 1.0 3.0 0.00 0.04 0.02 85 1019.4
20180120050706 44 236 1.0 3.0 0.00 0.04 0.02 85 1019.3
20180120050206 44 258 0.0 3.0 0.00 0.04 0.02 84 1019.3
20180120045706 44 277 1.0 7.0 0.00 0.04 0.02 84 1019.3
20180120044706 44 264 1.0 3.0 0.00 0.04 0.02 84 1019.2
20180120044206 44 253 0.0 2.0 0.00 0.04 0.02 84 1019.2
20180120043707 44 253 1.0 2.0 0.00 0.04 0.02 84 1019.2
20180120043206 44 252 0.0 2.0 0.00 0.04 0.02 83 1019.1
20180120042206 44 246 0.0 1.0 0.00 0.04 0.02 83 1019.1
20180120041706 44 246 0.0 2.0 0.00 0.04 0.02 83 1019.0
20180120041206 44 242 0.0 2.0 0.00 0.04 0.02 84 1019.0
20180120040206 44 284 0.0 2.0 0.00 0.04 0.02 84 1018.9
20180120035206 44 291 2.0 6.0 0.00 0.04 0.02 84 1019.0
20180120034706 44 276 2.0 3.0 0.00 0.04 0.02 83 1018.9
20180120034206 45 254 0.0 2.0 0.00 0.04 0.02 84 1018.9
20180120033706 45 253 1.0 3.0 0.00 0.04 0.02 83 1018.9
20180120033206 45 277 1.0 3.0 0.00 0.04 0.02 84 1018.8
20180120032707 45 278 0.0 2.0 0.00 0.04 0.02 84 1018.9
20180120032206 45 281 1.0 3.0 0.00 0.04 0.02 84 1018.8
20180120031706 45 284 0.0 2.0 0.00 0.04 0.02 84 1018.8
20180120031206 45 284 0.0 2.0 0.00 0.04 0.02 83 1018.8
20180120030706 45 284 0.0 1.0 0.00 0.04 0.02 83 1018.8
20180120025706 46 284 0.0 2.0 0.00 0.04 0.02 83 1018.8
20180120024707 46 284 0.0 2.0 0.00 0.04 0.02 83 1018.8
20180120024206 46 284 0.0 2.0 0.00 0.04 0.02 83 1018.8
20180120022707 47 286 0.0 2.0 0.00 0.04 0.02 82 1018.7
20180120022206 47 289 1.0 2.0 0.00 0.04 0.02 82 1018.7
20180120021206 48 289 0.0 2.0 0.00 0.04 0.02 81 1018.6
20180120020206 48 289 0.0 1.0 0.00 0.04 0.02 80 1018.6
20180120015706 48 289 0.0 0.0 0.00 0.04 0.02 80 1018.5
20180120015206 49 289 0.0 0.0 0.00 0.04 0.02 78 1018.5
20180120014206 49 289 1.0 2.0 0.00 0.04 0.02 77 1018.5
20180120013706 49 289 0.0 1.0 0.00 0.04 0.02 77 1018.4
20180120013206 50 289 0.0 0.0 0.00 0.04 0.02 76 1018.4
20180120012206 50 289 0.0 0.0 0.00 0.04 0.02 74 1018.3
20180120011706 51 289 0.0 1.0 0.00 0.04 0.02 72 1018.3
20180120011206 51 289 1.0 2.0 0.00 0.04 0.02 71 1018.3
20180120010706 51 289 1.0 3.0 0.00 0.04 0.02 70 1018.2
20180120010206 51 294 1.0 3.0 0.00 0.04 0.02 69 1018.1
20180120005706 51 316 1.0 3.0 0.00 0.04 0.02 68 1018.1
20180120005206 51 295 2.0 7.0 0.00 0.04 0.02 67 1018.2
20180120004706 51 330 2.0 6.0 0.00 0.04 0.02 68 1018.3
20180120004206 52 302 1.0 3.0 0.00 0.04 0.02 69 1018.3
20180120003707 52 319 1.0 3.0 0.00 0.04 0.02 68 1018.3
20180120003207 52 298 1.0 3.0 0.00 0.04 0.02 69 1018.4
20180120002206 52 299 1.0 5.0 0.00 0.04 0.02 68 1018.4
20180120001706 52 322 1.0 6.0 0.00 0.04 0.02 67 1018.3
20180120001206 52 290 3.0 6.0 0.00 0.04 0.02 66 1018.3
20180120000706 52 322 2.0 6.0 0.00 0.04 0.02 67 1018.3
20180120000206 52 324 4.0 8.0 0.00 0.04 0.02 67 1018.3
20180119235706 52 312 4.0 8.0 0.00 0.04 0.02 69 1018.5
20180119235207 52 315 3.0 7.0 0.00 0.04 0.02 68 1018.4
20180119234706 52 326 2.0 7.0 0.00 0.04 0.02 69 1018.4
20180119233706 52 302 2.0 3.0 0.00 0.04 0.02 69 1018.4
20180119232706 52 301 1.0 5.0 0.00 0.04 0.02 71 1018.5
20180119232206 52 304 3.0 7.0 0.00 0.04 0.02 71 1018.5
20180119231706 52 280 2.0 3.0 0.00 0.04 0.02 72 1018.5
20180119231206 52 301 4.0 8.0 0.00 0.04 0.02 72 1018.5
20180119230706 52 282 2.0 5.0 0.00 0.04 0.02 73 1018.5
20180119230205 52 302 2.0 6.0 0.00 0.04 0.02 73 1018.5
20180119225706 52 316 5.0 12.0 0.00 0.04 0.02 72 1018.6
20180119224706 52 310 2.0 13.0 0.00 0.04 0.02 76 1018.6
20180119224206 52 308 0.0 0.0 0.00 0.04 0.02 77 1018.6
20180119223706 52 308 0.0 0.0 0.00 0.04 0.02 76 1018.6
20180119223206 52 308 0.0 2.0 0.00 0.04 0.02 76 1018.6
20180119222706 52 308 1.0 3.0 0.00 0.04 0.02 75 1018.6
20180119222207 52 342 1.0 3.0 0.00 0.04 0.02 74 1018.6
20180119221707 52 341 1.0 6.0 0.00 0.04 0.02 74 1018.7
20180119221206 52 332 2.0 8.0 0.00 0.04 0.02 73 1018.7
20180119220706 52 335 3.0 7.0 0.00 0.04 0.02 73 1018.7
20180119220207 52 328 6.0 10.0 0.00 0.04 0.02 71 1018.7
20180119215706 53 335 3.0 8.0 0.00 0.04 0.02 71 1018.7
20180119215206 53 348 5.0 10.0 0.00 0.04 0.02 70 1018.7
20180119214706 53 327 7.0 12.0 0.00 0.04 0.02 69 1018.8
20180119214206 53 317 4.0 12.0 0.01 0.04 0.02 71 1018.8
20180119213706 53 328 5.0 12.0 0.01 0.04 0.02 73 1018.8
20180119213206 54 318 1.0 3.0 0.01 0.04 0.02 76 1018.7
20180119212707 54 284 2.0 7.0 0.01 0.04 0.02 77 1018.7
20180119212206 54 278 1.0 7.0 0.01 0.04 0.02 77 1018.7
20180119211706 54 250 1.0 3.0 0.01 0.04 0.02 77 1018.8
20180119211206 54 289 1.0 5.0 0.01 0.04 0.02 75 1018.9
20180119210706 54 319 2.0 3.0 0.01 0.04 0.02 74 1018.9
20180119210205 54 354 2.0 6.0 0.01 0.04 0.02 73 1018.9
20180119205706 54 310 3.0 6.0 0.01 0.04 0.02 73 1019.0
20180119205206 55 350 3.0 6.0 0.01 0.04 0.02 73 1018.9
20180119204706 55 9 3.0 8.0 0.01 0.04 0.02 73 1019.0
20180119204206 54 354 2.0 6.0 0.00 0.03 0.01 68 1019.0
20180119203706 54 114 1.0 5.0 0.00 0.03 0.01 67 1019.0
20180119203206 54 6 2.0 5.0 0.00 0.03 0.01 66 1019.1
20180119202706 54 29 2.0 5.0 0.00 0.03 0.01 66 1019.3
20180119202206 54 1 3.0 6.0 0.00 0.03 0.01 65 1019.4
20180119201707 54 15 2.0 7.0 0.00 0.03 0.01 65 1019.4
20180119201206 54 324 3.0 6.0 0.00 0.03 0.01 65 1019.5
20180119200706 54 352 2.0 6.0 0.00 0.03 0.01 65 1019.6
20180119200206 54 7 2.0 6.0 0.00 0.03 0.01 66 1019.6
20180119195706 54 69 1.0 5.0 0.00 0.03 0.01 66 1019.7
20180119195206 54 11 2.0 7.0 0.00 0.03 0.01 65 1019.7
20180119194706 54 52 3.0 8.0 0.00 0.03 0.01 65 1019.8
20180119193706 53 343 2.0 6.0 0.00 0.03 0.01 64 1020.1
20180119193206 53 354 2.0 5.0 0.00 0.03 0.01 65 1020.1
20180119192706 53 356 2.0 5.0 0.00 0.03 0.01 64 1020.2
20180119192206 53 344 5.0 8.0 0.00 0.03 0.01 68 1020.3
20180119191206 53 297 4.0 6.0 0.00 0.03 0.01 72 1020.5
20180119190206 52 289 2.0 6.0 0.00 0.03 0.01 71 1020.6
20180119185705 52 2 3.0 5.0 0.00 0.03 0.01 72 1020.6
20180119185206 52 335 3.0 7.0 0.00 0.03 0.01 74 1020.5
20180119184705 52 18 2.0 5.0 0.00 0.03 0.01 77 1020.6
20180119184205 51 338 3.0 7.0 0.00 0.03 0.01 77 1020.6
20180119183706 51 325 3.0 6.0 0.00 0.03 0.01 79 1020.6
20180119183206 51 350 3.0 5.0 0.00 0.03 0.01 80 1020.6
20180119182707 51 351 2.0 6.0 0.00 0.03 0.01 84 1020.6
20180119181706 50 298 3.0 6.0 0.00 0.03 0.01 86 1020.6
20180119181206 49 9 3.0 8.0 0.00 0.03 0.01 89 1020.7
20180119180706 49 29 2.0 5.0 0.00 0.03 0.01 90 1020.7
20180119180206 48 345 3.0 7.0 0.00 0.03 0.01 91 1020.8
20180119175706 48 299 2.0 5.0 0.00 0.03 0.01 92 1020.7
20180119175206 47 324 2.0 5.0 0.00 0.03 0.01 93 1020.7
20180119174206 47 329 0.0 3.0 0.00 0.03 0.01 94 1020.6
20180119173706 46 341 0.0 3.0 0.00 0.03 0.01 94 1020.6
20180119173205 46 330 1.0 3.0 0.00 0.03 0.01 94 1020.7
20180119172706 46 346 1.0 3.0 0.00 0.03 0.01 94 1020.6
20180119172206 46 343 2.0 3.0 0.00 0.03 0.01 95 1020.6
20180119171706 46 283 1.0 3.0 0.00 0.03 0.01 95 1020.6
20180119171206 46 208 0.0 2.0 0.00 0.03 0.01 94 1020.6
20180119170706 46 208 0.0 2.0 0.00 0.03 0.01 94 1020.6
20180119170206 46 208 1.0 2.0 0.00 0.03 0.01 94 1020.6
20180119165706 46 223 0.0 2.0 0.00 0.03 0.01 94 1020.6
20180119164706 46 226 0.0 0.0 0.00 0.03 0.01 94 1020.5
20180119164206 45 213 0.0 0.0 0.00 0.03 0.01 94 1020.4
20180119163707 46 191 0.0 0.0 0.00 0.03 0.01 94 1020.3
20180119162706 46 191 0.0 0.0 0.00 0.03 0.01 94 1020.2
20180119162206 46 191 0.0 0.0 0.00 0.03 0.01 94 1020.2
20180119161705 46 191 0.0 0.0 0.00 0.03 0.01 94 1020.1
20180119161206 46 191 0.0 0.0 0.00 0.03 0.01 94 1020.2
20180119160706 46 191 0.0 0.0 0.00 0.03 0.01 94 1020.2
20180119160206 46 191 0.0 1.0 0.00 0.03 0.01 94 1020.1
20180119155707 46 181 0.0 3.0 0.00 0.03 0.01 94 1020.1
20180119155206 46 177 0.0 0.0 0.00 0.03 0.01 94 1020.1
20180119154706 46 178 0.0 0.0 0.00 0.03 0.01 94 1020.1
20180119154206 46 178 0.0 0.0 0.00 0.03 0.01 94 1020.1
20180119153706 46 178 0.0 0.0 0.00 0.03 0.01 94 1020.1
20180119153206 46 178 0.0 0.0 0.00 0.03 0.01 94 1020.1
20180119152706 46 178 0.0 0.0 0.00 0.03 0.01 94 1020.1
20180119152206 46 178 0.0 0.0 0.00 0.03 0.01 94 1020.0
20180119151706 46 178 0.0 0.0 0.00 0.03 0.01 94 1020.0
20180119151206 46 178 0.0 0.0 0.00 0.03 0.01 94 1019.9
20180119150206 46 178 0.0 0.0 0.00 0.03 0.01 94 1019.9
20180119145705 46 178 0.0 0.0 0.00 0.03 0.01 94 1019.9
20180119145206 46 178 0.0 0.0 0.00 0.03 0.01 94 1019.8
20180119144706 46 178 0.0 0.0 0.00 0.03 0.01 94 1019.7
20180119144206 46 178 0.0 0.0 0.00 0.03 0.01 94 1019.7
20180119143706 46 178 0.0 0.0 0.00 0.03 0.01 94 1019.7
20180119142706 46 178 0.0 0.0 0.00 0.03 0.01 94 1019.6
20180119142206 46 178 0.0 0.0 0.00 0.03 0.01 94 1019.6
20180119141706 46 178 0.0 0.0 0.00 0.03 0.01 94 1019.6
20180119141206 46 177 0.0 0.0 0.00 0.03 0.01 94 1019.5
20180119140706 46 178 0.0 0.0 0.00 0.03 0.01 93 1019.5
20180119140206 46 178 0.0 0.0 0.00 0.03 0.01 93 1019.5
20180119135706 46 177 0.0 0.0 0.00 0.03 0.01 93 1019.3
20180119135206 46 177 0.0 0.0 0.00 0.03 0.01 93 1019.3
20180119134705 46 177 0.0 0.0 0.00 0.03 0.01 93 1019.3
20180119134206 46 178 0.0 0.0 0.00 0.03 0.01 93 1019.3
20180119133706 46 178 0.0 0.0 0.00 0.03 0.01 93 1019.3
20180119133206 46 177 0.0 0.0 0.00 0.03 0.01 93 1019.4
20180119132206 47 178 0.0 0.0 0.00 0.03 0.01 93 1019.3
20180119131706 47 178 0.0 0.0 0.00 0.03 0.01 93 1019.4
20180119131206 47 177 0.0 0.0 0.00 0.03 0.01 93 1019.5
20180119130206 47 178 0.0 0.0 0.00 0.03 0.01 93 1019.5
20180119125706 47 177 0.0 0.0 0.00 0.03 0.01 93 1019.5
20180119125207 47 177 0.0 0.0 0.00 0.03 0.01 92 1019.5
20180119124706 47 177 0.0 0.0 0.00 0.03 0.01 92 1019.4
20180119124206 47 177 0.0 0.0 0.00 0.03 0.01 92 1019.3
20180119123206 48 177 0.0 0.0 0.00 0.03 0.01 92 1019.4
20180119122206 48 177 0.0 0.0 0.00 0.03 0.01 92 1019.3
20180119121706 48 178 0.0 0.0 0.00 0.03 0.01 92 1019.3
20180119121206 48 178 0.0 0.0 0.00 0.03 0.01 92 1019.3
20180119120706 48 177 0.0 0.0 0.00 0.03 0.01 92 1019.3
20180119120206 48 178 0.0 0.0 0.00 0.03 0.01 92 1019.3
20180119115705 48 178 0.0 0.0 0.00 0.03 0.01 92 1019.3
20180119115205 48 178 0.0 1.0 0.00 0.03 0.01 92 1019.3
20180119114705 48 178 1.0 2.0 0.00 0.03 0.01 92 1019.3
20180119114206 48 177 1.0 2.0 0.00 0.03 0.01 91 1019.3
20180119113706 48 123 0.0 0.0 0.00 0.03 0.01 91 1019.2
20180119113206 48 123 0.0 0.0 0.00 0.03 0.01 91 1019.2
20180119112206 49 123 0.0 0.0 0.00 0.03 0.01 91 1019.2